カタログに戻る

FENGYUN 1C DEB

運用中SSO
NORAD 36678·DEBRIS·🇨🇳 China

打ち上げ May 10, 1999 から Taiyuan Satellite Launch Center

Loading…

次のパス (今後24時間)

TLE

最新Source: Space-Track

元期: Sep 13, 2026, 04:22 UTC

1 36678U 99025DYY 26256.18238464  .00000391  00000-0  12626-3 0  9995
2 36678  98.3221 234.7867 0148911 247.8412 110.6915 14.38536225689348

AllMySatでFENGYUN 1C DEBをリアルタイム追跡

Download on the App Store